Time,TemperatureF,DewpointF,PressureIn,WindDirection,WindDirectionDegrees,WindSpeedMPH,WindSpeedGustMPH,Humidity,HourlyPrecipIn,Conditions,Clouds,dailyrainin,SoftwareType,DateUTC
2013-01-24 00:02:00,-19.0,-26.0,-100.00,NNW,335,1.0,2.0,74,0.00,,,0.00,,2013-01-24 06:02:00,
2013-01-24 00:12:00,-19.0,-24.0,-100.00,North,5,4.0,6.0,75,0.00,,,0.00,,2013-01-24 06:12:00,
2013-01-24 00:22:00,-18.0,-24.0,-100.00,NNE,20,2.0,6.0,75,0.00,,,0.00,,2013-01-24 06:22:00,
2013-01-24 00:32:00,-18.0,-24.0,-100.00,North,355,2.0,4.0,75,0.00,,,0.00,,2013-01-24 06:32:00,
2013-01-24 00:42:00,-18.0,-24.0,-100.00,WNW,300,1.0,4.0,75,0.00,,,0.00,,2013-01-24 06:42:00,
2013-01-24 00:52:00,-18.0,-24.0,-100.00,North,0,3.0,5.0,75,0.00,,,0.00,,2013-01-24 06:52:00,
2013-01-24 01:02:00,-18.0,-24.0,-100.00,NNW,335,1.0,6.0,76,0.00,,,0.00,,2013-01-24 07:02:00,
2013-01-24 01:12:00,-19.0,-24.0,-100.00,NW,305,1.0,4.0,76,0.00,,,0.00,,2013-01-24 07:12:00,
2013-01-24 01:22:00,-19.0,-24.0,-100.00,North,0,1.0,2.0,76,0.00,,,0.00,,2013-01-24 07:22:00,
2013-01-24 01:33:00,-18.0,-24.0,-100.00,North,0,5.0,7.0,76,0.00,,,0.00,,2013-01-24 07:33:00,
2013-01-24 01:42:00,-18.0,-22.0,-100.00,NNW,330,2.0,6.0,76,0.00,,,0.00,,2013-01-24 07:42:00,
2013-01-24 01:52:00,-18.0,-22.0,-100.00,North,5,2.0,4.0,76,0.00,,,0.00,,2013-01-24 07:52:00,
2013-01-24 02:02:00,-17.0,-22.0,-100.00,NE,35,2.0,4.0,76,0.00,,,0.00,,2013-01-24 08:02:00,
2013-01-24 02:12:00,-17.0,-22.0,-100.00,North,5,2.0,6.0,76,0.00,,,0.00,,2013-01-24 08:12:00,
2013-01-24 02:22:00,-17.0,-22.0,-100.00,North,5,2.0,4.0,76,0.00,,,0.00,,2013-01-24 08:22:00,
2013-01-24 02:33:00,-17.0,-22.0,-100.00,NE,35,1.0,3.0,76,0.00,,,0.00,,2013-01-24 08:33:00,
2013-01-24 02:42:00,-17.0,-22.0,-100.00,NE,45,1.0,2.0,76,0.00,,,0.00,,2013-01-24 08:42:00,
2013-01-24 02:52:00,-17.0,-22.0,-100.00,NE,40,0.0,3.0,76,0.00,,,0.00,,2013-01-24 08:52:00,
2013-01-24 03:02:00,-17.0,-22.0,-100.00,ENE,60,0.0,1.0,76,0.00,,,0.00,,2013-01-24 09:02:00,
2013-01-24 03:12:00,-17.0,-22.0,-100.00,ENE,60,0.0,0.0,76,0.00,,,0.00,,2013-01-24 09:12:00,
2013-01-24 03:22:00,-17.0,-22.0,-100.00,West,275,0.0,1.0,76,0.00,,,0.00,,2013-01-24 09:22:00,
2013-01-24 03:33:00,-17.0,-22.0,-100.00,NNE,30,0.0,1.0,76,0.00,,,0.00,,2013-01-24 09:33:00,
2013-01-24 03:42:00,-17.0,-22.0,-100.00,ENE,60,1.0,2.0,76,0.00,,,0.00,,2013-01-24 09:42:00,
2013-01-24 03:52:00,-17.0,-22.0,-100.00,NE,55,2.0,3.0,76,0.00,,,0.00,,2013-01-24 09:52:00,
2013-01-24 04:02:00,-17.0,-22.0,-100.00,East,95,1.0,2.0,76,0.00,,,0.00,,2013-01-24 10:02:00,
2013-01-24 04:12:00,-17.0,-22.0,-100.00,East,90,1.0,2.0,76,0.00,,,0.00,,2013-01-24 10:12:00,
2013-01-24 04:22:00,-17.0,-22.0,-100.00,SE,125,1.0,2.0,76,0.00,,,0.00,,2013-01-24 10:22:00,
2013-01-24 04:33:00,-17.0,-22.0,-100.00,SSE,165,1.0,1.0,76,0.00,,,0.00,,2013-01-24 10:33:00,
2013-01-24 04:43:00,-17.0,-22.0,-100.00,South,170,0.0,1.0,76,0.00,,,0.00,,2013-01-24 10:43:00,
2013-01-24 04:52:00,-17.0,-22.0,-100.00,South,185,0.0,1.0,76,0.00,,,0.00,,2013-01-24 10:52:00,
2013-01-24 05:02:00,-17.0,-22.0,-100.00,SE,125,0.0,0.0,76,0.00,,,0.00,,2013-01-24 11:02:00,
2013-01-24 05:12:00,-17.0,-22.0,-100.00,SE,130,2.0,2.0,76,0.00,,,0.00,,2013-01-24 11:12:00,
2013-01-24 05:23:00,-16.0,-22.0,-100.00,SE,125,1.0,2.0,76,0.00,,,0.00,,2013-01-24 11:23:00,
2013-01-24 05:33:00,-16.0,-22.0,-100.00,SE,140,1.0,2.0,76,0.00,,,0.00,,2013-01-24 11:33:00,
2013-01-24 05:43:00,-16.0,-22.0,-100.00,East,85,2.0,3.0,76,0.00,,,0.00,,2013-01-24 11:43:00,
2013-01-24 05:52:00,-16.0,-20.0,-100.00,East,85,4.0,4.0,76,0.00,,,0.00,,2013-01-24 11:52:00,
2013-01-24 06:03:00,-15.0,-20.0,-100.00,East,85,4.0,6.0,76,0.00,,,0.00,,2013-01-24 12:03:00,
2013-01-24 06:12:00,-15.0,-20.0,-100.00,East,85,4.0,6.0,76,0.00,,,0.00,,2013-01-24 12:12:00,
2013-01-24 06:22:00,-15.0,-20.0,-100.00,East,100,4.0,5.0,76,0.00,,,0.00,,2013-01-24 12:22:00,
2013-01-24 06:33:00,-15.0,-20.0,-100.00,ESE,105,2.0,6.0,76,0.00,,,0.00,,2013-01-24 12:33:00,
2013-01-24 06:42:00,-14.0,-20.0,-100.00,ESE,115,1.0,4.0,76,0.00,,,0.00,,2013-01-24 12:42:00,
2013-01-24 06:53:00,-14.0,-20.0,-100.00,SSE,155,3.0,4.0,76,0.00,,,0.00,,2013-01-24 12:53:00,
2013-01-24 07:03:00,-14.0,-20.0,-100.00,South,170,2.0,6.0,76,0.00,,,0.00,,2013-01-24 13:03:00,
2013-01-24 07:12:00,-14.0,-18.0,-100.00,SSE,160,3.0,5.0,75,0.00,,,0.00,,2013-01-24 13:12:00,
2013-01-24 07:22:00,-13.0,-18.0,-100.00,SSE,160,4.0,6.0,75,0.00,,,0.00,,2013-01-24 13:22:00,
2013-01-24 07:33:00,-13.0,-18.0,-100.00,SE,130,2.0,6.0,74,0.00,,,0.00,,2013-01-24 13:33:00,
2013-01-24 07:42:00,-13.0,-18.0,-100.00,SE,125,4.0,6.0,73,0.00,,,0.00,,2013-01-24 13:42:00,
2013-01-24 07:52:00,-13.0,-18.0,-100.00,SE,140,2.0,7.0,72,0.00,,,0.00,,2013-01-24 13:52:00,
2013-01-24 08:02:00,-12.0,-18.0,-100.00,SE,125,3.0,9.0,72,0.00,,,0.00,,2013-01-24 14:02:00,
2013-01-24 08:12:00,-12.0,-18.0,-100.00,ESE,115,6.0,9.0,71,0.00,,,0.00,,2013-01-24 14:12:00,
2013-01-24 08:22:00,-12.0,-18.0,-100.00,ESE,120,9.0,10.0,71,0.00,,,0.00,,2013-01-24 14:22:00,
2013-01-24 08:33:00,-12.0,-18.0,-100.00,SE,125,6.0,9.0,71,0.00,,,0.00,,2013-01-24 14:33:00,
2013-01-24 08:43:00,-12.0,-18.0,-100.00,SE,125,6.0,9.0,71,0.00,,,0.00,,2013-01-24 14:43:00,
2013-01-24 08:53:00,-12.0,-18.0,-100.00,ESE,115,5.0,10.0,70,0.00,,,0.00,,2013-01-24 14:53:00,
2013-01-24 09:03:00,-12.0,-18.0,-100.00,ESE,120,6.0,9.0,70,0.00,,,0.00,,2013-01-24 15:03:00,
2013-01-24 09:12:00,-12.0,-18.0,-100.00,SE,125,7.0,9.0,70,0.00,,,0.00,,2013-01-24 15:12:00,
2013-01-24 09:22:00,-11.0,-18.0,-100.00,ESE,115,10.0,11.0,69,0.00,,,0.00,,2013-01-24 15:22:00,
2013-01-24 09:33:00,-11.0,-18.0,-100.00,SE,125,8.0,10.0,68,0.00,,,0.00,,2013-01-24 15:33:00,
2013-01-24 09:43:00,-11.0,-18.0,-100.00,SE,135,6.0,10.0,68,0.00,,,0.00,,2013-01-24 15:43:00,
2013-01-24 09:52:00,-10.0,-18.0,-100.00,South,170,5.0,8.0,67,0.00,,,0.00,,2013-01-24 15:52:00,
2013-01-24 10:03:00,-10.0,-18.0,-100.00,SSE,155,3.0,7.0,66,0.00,,,0.00,,2013-01-24 16:03:00,
2013-01-24 10:12:00,-10.0,-18.0,-100.00,ESE,115,6.0,9.0,66,0.00,,,0.00,,2013-01-24 16:12:00,
2013-01-24 10:22:00,-9.0,-18.0,-100.00,ESE,120,5.0,9.0,65,0.00,,,0.00,,2013-01-24 16:22:00,
2013-01-24 10:33:00,-9.0,-17.0,-100.00,ESE,115,4.0,7.0,64,0.00,,,0.00,,2013-01-24 16:33:00,
2013-01-24 10:42:00,-9.0,-17.0,-100.00,ESE,115,4.0,7.0,64,0.00,,,0.00,,2013-01-24 16:42:00,
2013-01-24 11:02:00,-8.0,-17.0,-100.00,SE,145,6.0,11.0,62,0.00,,,0.00,,2013-01-24 17:02:00,
2013-01-24 11:12:00,-8.0,-18.0,-100.00,SE,140,6.0,11.0,61,0.00,,,0.00,,2013-01-24 17:12:00,
2013-01-24 11:21:00,-7.0,-17.0,-100.00,SE,135,7.0,9.0,61,0.00,,,0.00,,2013-01-24 17:21:00,
2013-01-24 11:32:00,-7.0,-17.0,-100.00,SE,125,6.0,11.0,60,0.00,,,0.00,,2013-01-24 17:32:00,
2013-01-24 11:42:00,-7.0,-17.0,-100.00,SSE,165,7.0,12.0,59,0.00,,,0.00,,2013-01-24 17:42:00,
2013-01-24 11:52:00,-6.0,-17.0,-100.00,SSE,155,6.0,11.0,59,0.00,,,0.00,,2013-01-24 17:52:00,
2013-01-24 12:02:00,-6.0,-17.0,-100.00,SE,125,10.0,13.0,58,0.00,,,0.00,,2013-01-24 18:02:00,
2013-01-24 12:12:00,-6.0,-17.0,-100.00,SE,140,6.0,12.0,58,0.00,,,0.00,,2013-01-24 18:12:00,
2013-01-24 12:22:00,-6.0,-17.0,-100.00,SE,145,6.0,10.0,58,0.00,,,0.00,,2013-01-24 18:22:00,
2013-01-24 12:32:00,-5.0,-17.0,-100.00,ESE,120,9.0,12.0,58,0.00,,,0.00,,2013-01-24 18:32:00,
2013-01-24 12:42:00,-5.0,-17.0,-100.00,SE,130,7.0,15.0,58,0.00,,,0.00,,2013-01-24 18:42:00,
2013-01-24 12:52:00,-5.0,-17.0,-100.00,SSE,150,7.0,12.0,57,0.00,,,0.00,,2013-01-24 18:52:00,
2013-01-24 13:02:00,-5.0,-17.0,-100.00,SE,140,4.0,11.0,56,0.00,,,0.00,,2013-01-24 19:02:00,
2013-01-24 13:12:00,-4.0,-17.0,-100.00,SE,130,6.0,12.0,56,0.00,,,0.00,,2013-01-24 19:12:00,
2013-01-24 13:22:00,-4.0,-17.0,-100.00,SE,135,6.0,12.0,56,0.00,,,0.00,,2013-01-24 19:22:00,
2013-01-24 13:33:00,-4.0,-17.0,-100.00,SE,135,6.0,9.0,55,0.00,,,0.00,,2013-01-24 19:33:00,
2013-01-24 13:42:00,-4.0,-17.0,-100.00,ESE,105,8.0,12.0,55,0.00,,,0.00,,2013-01-24 19:42:00,
2013-01-24 13:52:00,-4.0,-17.0,-100.00,SE,125,9.0,12.0,54,0.00,,,0.00,,2013-01-24 19:52:00,
2013-01-24 14:02:00,-3.0,-15.0,-100.00,ESE,115,8.0,11.0,54,0.00,,,0.00,,2013-01-24 20:02:00,
2013-01-24 14:11:00,-3.0,-15.0,-100.00,SE,140,7.0,12.0,54,0.00,,,0.00,,2013-01-24 20:11:00,
2013-01-24 14:22:00,-3.0,-15.0,-100.00,SE,130,9.0,14.0,54,0.00,,,0.00,,2013-01-24 20:22:00,
2013-01-24 14:32:00,-3.0,-15.0,-100.00,ESE,120,7.0,12.0,54,0.00,,,0.00,,2013-01-24 20:32:00,
2013-01-24 14:42:00,-3.0,-15.0,-100.00,ESE,120,9.0,14.0,54,0.00,,,0.00,,2013-01-24 20:42:00,
2013-01-24 14:52:00,-3.0,-15.0,-100.00,SE,145,6.0,12.0,54,0.00,,,0.00,,2013-01-24 20:52:00,
2013-01-24 15:02:00,-2.0,-15.0,-100.00,ESE,120,9.0,12.0,54,0.00,,,0.00,,2013-01-24 21:02:00,
2013-01-24 15:12:00,-2.0,-15.0,-100.00,ESE,115,12.0,14.0,54,0.00,,,0.00,,2013-01-24 21:12:00,
2013-01-24 15:22:00,-2.0,-15.0,-100.00,SE,125,9.0,14.0,54,0.00,,,0.00,,2013-01-24 21:22:00,
2013-01-24 15:33:00,-2.0,-15.0,-100.00,SE,130,9.0,16.0,54,0.00,,,0.00,,2013-01-24 21:33:00,
2013-01-24 15:42:00,-2.0,-15.0,-100.00,SE,125,11.0,16.0,55,0.00,,,0.00,,2013-01-24 21:42:00,
2013-01-24 15:52:00,-2.0,-15.0,-100.00,SE,130,9.0,15.0,55,0.00,,,0.00,,2013-01-24 21:52:00,
2013-01-24 16:03:00,-1.0,-13.0,-100.00,SSE,150,7.0,16.0,55,0.00,,,0.00,,2013-01-24 22:03:00,
2013-01-24 16:12:00,-1.0,-13.0,-100.00,SE,135,7.0,16.0,55,0.00,,,0.00,,2013-01-24 22:12:00,
2013-01-24 16:22:00,-1.0,-13.0,-100.00,SE,125,7.0,12.0,55,0.00,,,0.00,,2013-01-24 22:22:00,
2013-01-24 16:32:00,-1.0,-13.0,-100.00,SE,130,7.0,16.0,55,0.00,,,0.00,,2013-01-24 22:32:00,
2013-01-24 16:42:00,-1.0,-13.0,-100.00,SE,130,8.0,16.0,55,0.00,,,0.00,,2013-01-24 22:42:00,
2013-01-24 16:52:00,-1.0,-13.0,-100.00,SE,125,7.0,14.0,56,0.00,,,0.00,,2013-01-24 22:52:00,
2013-01-24 17:02:00,-1.0,-13.0,-100.00,SE,140,7.0,14.0,56,0.00,,,0.00,,2013-01-24 23:02:00,
2013-01-24 17:12:00,-1.0,-13.0,-100.00,SE,125,9.0,14.0,57,0.00,,,0.00,,2013-01-24 23:12:00,
2013-01-24 17:22:00,0.0,-11.0,-100.00,SE,130,7.0,12.0,57,0.00,,,0.00,,2013-01-24 23:22:00,
2013-01-24 17:32:00,0.0,-11.0,-100.00,SE,125,7.0,11.0,57,0.00,,,0.00,,2013-01-24 23:32:00,
2013-01-24 17:42:00,0.0,-11.0,-100.00,SE,130,9.0,12.0,58,0.00,,,0.00,,2013-01-24 23:42:00,
2013-01-24 17:52:00,0.0,-11.0,-100.00,SE,130,8.0,14.0,59,0.00,,,0.00,,2013-01-24 23:52:00,
2013-01-24 18:02:00,0.0,-11.0,-100.00,SE,125,8.0,15.0,60,0.00,,,0.00,,2013-01-25 00:02:00,
2013-01-24 18:12:00,0.0,-9.0,-100.00,SE,130,6.0,11.0,61,0.00,,,0.00,,2013-01-25 00:12:00,
2013-01-24 18:22:00,0.0,-9.0,-100.00,ESE,120,7.0,12.0,62,0.00,,,0.00,,2013-01-25 00:22:00,
2013-01-24 18:32:00,0.0,-9.0,-100.00,ESE,120,9.0,12.0,62,0.00,,,0.00,,2013-01-25 00:32:00,
2013-01-24 18:41:00,0.0,-9.0,-100.00,SE,130,10.0,15.0,62,0.00,,,0.00,,2013-01-25 00:41:00,
2013-01-24 18:51:00,1.0,-9.0,-100.00,SE,130,9.0,18.0,62,0.00,,,0.00,,2013-01-25 00:51:00,
2013-01-24 19:01:00,1.0,-9.0,-100.00,ESE,120,10.0,17.0,61,0.00,,,0.00,,2013-01-25 01:01:00,
2013-01-24 19:12:00,1.0,-9.0,-100.00,ESE,120,13.0,19.0,61,0.00,,,0.00,,2013-01-25 01:12:00,
2013-01-24 19:21:00,1.0,-9.0,-100.00,SE,135,10.0,19.0,60,0.00,,,0.00,,2013-01-25 01:21:00,
2013-01-24 19:32:00,1.0,-9.0,-100.00,SE,135,12.0,21.0,60,0.00,,,0.00,,2013-01-25 01:32:00,
2013-01-24 19:42:00,1.0,-9.0,-100.00,ESE,120,10.0,18.0,60,0.00,,,0.00,,2013-01-25 01:42:00,
2013-01-24 19:52:00,2.0,-9.0,-100.00,SE,130,6.0,19.0,60,0.00,,,0.00,,2013-01-25 01:52:00,
2013-01-24 20:02:00,2.0,-9.0,-100.00,SSE,160,9.0,16.0,60,0.00,,,0.00,,2013-01-25 02:02:00,
2013-01-24 20:11:00,2.0,-9.0,-100.00,SE,135,7.0,14.0,60,0.00,,,0.00,,2013-01-25 02:11:00,
2013-01-24 20:22:00,2.0,-8.0,-100.00,SE,130,9.0,15.0,61,0.00,,,0.00,,2013-01-25 02:22:00,
2013-01-24 20:32:00,2.0,-8.0,-100.00,SE,125,10.0,17.0,61,0.00,,,0.00,,2013-01-25 02:32:00,
2013-01-24 20:42:00,2.0,-8.0,-100.00,SE,130,6.0,12.0,61,0.00,,,0.00,,2013-01-25 02:42:00,
2013-01-24 20:52:00,2.0,-8.0,-100.00,SSE,155,7.0,17.0,61,0.00,,,0.00,,2013-01-25 02:52:00,
2013-01-24 21:02:00,3.0,-8.0,-100.00,SSE,155,9.0,14.0,61,0.00,,,0.00,,2013-01-25 03:02:00,
2013-01-24 21:12:00,3.0,-8.0,-100.00,SE,145,7.0,14.0,61,0.00,,,0.00,,2013-01-25 03:12:00,
2013-01-24 21:22:00,3.0,-8.0,-100.00,SSE,150,7.0,12.0,61,0.00,,,0.00,,2013-01-25 03:22:00,
2013-01-24 21:33:00,3.0,-8.0,-100.00,SE,135,7.0,12.0,61,0.00,,,0.00,,2013-01-25 03:33:00,
2013-01-24 21:41:00,3.0,-8.0,-100.00,SSE,150,7.0,12.0,61,0.00,,,0.00,,2013-01-25 03:41:00,
2013-01-24 21:52:00,3.0,-8.0,-100.00,ESE,120,9.0,14.0,61,0.00,,,0.00,,2013-01-25 03:52:00,
2013-01-24 22:02:00,3.0,-8.0,-100.00,SSE,155,6.0,14.0,61,0.00,,,0.00,,2013-01-25 04:02:00,
2013-01-24 22:12:00,4.0,-6.0,-100.00,South,175,9.0,17.0,61,0.00,,,0.00,,2013-01-25 04:12:00,
2013-01-24 22:22:00,4.0,-6.0,-100.00,SSE,165,11.0,21.0,61,0.00,,,0.00,,2013-01-25 04:22:00,
2013-01-24 22:32:00,4.0,-6.0,-100.00,SSE,150,10.0,20.0,61,0.00,,,0.00,,2013-01-25 04:32:00,
2013-01-24 22:41:00,4.0,-6.0,-100.00,SSE,165,12.0,20.0,61,0.00,,,0.00,,2013-01-25 04:41:00,
2013-01-24 22:51:00,4.0,-6.0,-100.00,SSE,165,10.0,18.0,62,0.00,,,0.00,,2013-01-25 04:51:00,
2013-01-24 23:03:00,4.0,-4.0,-100.00,SSE,165,9.0,18.0,66,0.00,,,0.00,,2013-01-25 05:03:00,
2013-01-24 23:12:00,4.0,-4.0,-100.00,South,170,10.0,22.0,66,0.00,,,0.00,,2013-01-25 05:12:00,
2013-01-24 23:22:00,4.0,-4.0,-100.00,SSE,165,11.0,15.0,68,0.00,,,0.00,,2013-01-25 05:22:00,
2013-01-24 23:32:00,4.0,-4.0,-100.00,SSE,155,7.0,17.0,68,0.00,,,0.00,,2013-01-25 05:32:00,
2013-01-24 23:43:00,4.0,-4.0,-100.00,South,175,11.0,16.0,69,0.00,,,0.00,,2013-01-25 05:43:00,
2013-01-24 23:52:00,4.0,-2.0,-100.00,SSE,155,7.0,15.0,71,0.00,,,0.00,,2013-01-25 05:52:00,